Regional Weather Roundup
Issued by NWS

Home | Current Version | Previous Version | Graphics & Text | Print | Product List | Glossary On
Versions: 1 2 3 4 5 6 7 8 9 10 11 12 13 14 15 16 17 18 19 20 21 22 23 24 25 26 27 28 29 30 31 32 33 34 35 36 37 38 39 40 41 42 43 44 45 46 47 48 49 50
000
ASUS45 KABQ 290010
RWRNM
WEATHER ROUNDUP FOR NEW MEXICO
NATIONAL WEATHER SERVICE ALBUQUERQUE NM
500 PM MST WED JAN 28 2015

NOTE: "FAIR" MEANS FEW OR NO CLOUDS BELOW 12,000 FEET AGL WITH NO
       SIGNIFICANT WEATHER OR OBSTRUCTIONS TO VISION.

      THIS PRODUCT IS RELEASED AS TWO VERSIONS.  ONE VERSION NEAR
      THE TOP OF THE HOUR CONTAINING PRELIMINARY DATA FROM ALBUQUERQUE
      AND OTHER STATIONS.  A FINAL VERSION WITH ADDITIONAL DATA IS
      ISSUED ABOUT 10 MINUTES AFTER THE HOUR.

NMZ501-503-504-510>518-290100-
NORTHWEST PLATEAU/NORTHCENTRAL MOUNTAINS

CITY           SKY/WX    TMP DP  RH WIND       PRES   REMARKS
FARMINGTON     CLEAR     52  27  38 W9        30.20S
6HR MIN TEMP:  46; 6HR MAX TEMP:  57;

LOS ALAMOS     CLEAR     50  26  38 E3        30.22R
SANTA FE       CLEAR     54  25  32 N13       30.17R
6HR MIN TEMP:  53; 6HR MAX TEMP:  58;

TAOS           PTCLDY    48  27  43 S7        30.21R
ANGEL FIRE     FAIR      41  25  53 W13       30.23R

$$
NMZ402-403-502-505>509-290100-
WESTCENTRAL MOUNTAINS/SOUTHWEST MOUNTAINS

CITY           SKY/WX    TMP DP  RH WIND       PRES   REMARKS
GALLUP         PTCLDY    54  29  38 NW7       30.21F
6HR MIN TEMP:  48; 6HR MAX TEMP:  57;

GRANTS         PTCLDY    53  24  33 N7        30.22F
SILVER CITY    CLEAR     64  28  25 NW10      30.18S

$$
NMZ407-409-411-412-290100-
SOUTHERN DESERTS

CITY           SKY/WX    TMP DP  RH WIND       PRES   REMARKS
LORDSBURG      FAIR      64  32  29 W3        30.14S
DEMING         PTCLDY    68  32  26 W7        30.13R
6HR MIN TEMP:  62; 6HR MAX TEMP:  71;

LAS CRUCES     PTCLDY    68  34  28 SW6       30.15R
ALAMOGORDO     PTCLDY    66  32  28 CALM      30.12S
T OR C         CLEAR     67  32  27 S7        30.12R
6HR MIN TEMP:  59; 6HR MAX TEMP:  68;


$$
NMZ519>523-290100-
CENTRAL VALLEYS/CENTRAL HIGHLANDS

CITY           SKY/WX    TMP DP  RH WIND       PRES   REMARKS
ALBUQUERQUE    MOCLDY    58  29  33 N15       30.18R
6HR MIN TEMP:  53; 6HR MAX TEMP:  63;

DOUBLE EAGLE   MOCLDY    55  28  35 NW13      30.20R
MORIARTY ARPT  FAIR      54  25  32 NW12      30.17S
6HR MIN TEMP:  54; 6HR MAX TEMP:  61;

CLINES CORNERS CLEAR     49  26  41 NW24      30.15S
6HR MIN TEMP:  49; 6HR MAX TEMP:  55;

BELEN          FAIR      60  29  30 N8        30.15S
SOCORRO          N/A     65  33  30 S5        30.13S
6HR MIN TEMP:  57; 6HR MAX TEMP:  68;


$$
NMZ524>526-539-540-290100-
SOUTHCENTRAL MOUNTAINS

CITY           SKY/WX    TMP DP  RH WIND       PRES   REMARKS
RUIDOSO        PTCLDY    54  27  35 N6        30.22S

$$
NMZ527>531-290100-
NORTHEAST HIGHLANDS/NORTHEAST PLAINS

CITY           SKY/WX    TMP DP  RH WIND       PRES   REMARKS
LAS VEGAS      CLEAR     55  26  32 E8        30.12R
6HR MIN TEMP:  55; 6HR MAX TEMP:  65;

RATON          MOCLDY    51  29  42 NE6       30.11R
6HR MIN TEMP:  51; 6HR MAX TEMP:  66;

CLAYTON        MOCLDY    57  34  41 SW6       30.08R
6HR MIN TEMP:  57; 6HR MAX TEMP:  68;


$$
NMZ532>537-290100-
EASTCENTRAL PLAINS

CITY           SKY/WX    TMP DP  RH WIND       PRES   REMARKS
TUCUMCARI      PTCLDY    64  33  31 SW7       30.00S
6HR MIN TEMP:  64; 6HR MAX TEMP:  71;

CANNON AFB     CLEAR     64  34  32 W8        30.05R
6HR MIN TEMP:  63; 6HR MAX TEMP:  69;

CLOVIS AIRPORT CLEAR     63  30  29 W7        30.05R

$$
NMZ028-029-538-290100-
SOUTHEAST PLAINS

CITY           SKY/WX    TMP DP  RH WIND       PRES   REMARKS
ROSWELL        PTCLDY    69  38  32 S7        30.05S
6HR MIN TEMP:  66; 6HR MAX TEMP:  75;

ARTESIA        CLEAR     68  41  37 NE8       30.06R
CARLSBAD       CLEAR     70  38  31 W9        30.04S
6HR MIN TEMP:  67; 6HR MAX TEMP:  78;

HOBBS          CLEAR     70  36  28 SW9       30.07F


$$



USA.gov is the U.S. government's official web portal to all federal, state and local government web resources and services.